Preview of NWS' New Version of Forecast
This preview is not operational and should not be used for support decisions.

Regional Weather Roundup (RWR)

Issued by Bismarck, ND (BIS)

                            
000
ASUS43 KBIS 200910
RWRBIS

NWR BROADCAST TEXT
NATIONAL WEATHER SERVICE BISMARCK ND
300 AM CST WED FEB 20 2019

NOTE: "FAIR" INDICATES FEW OR NO CLOUDS BELOW 12,000 FEET WITH NO
SIGNIFICANT WEATHER AND/OR OBSTRUCTIONS TO VISIBILITY.

  
CITY           SKY/WX    TMP DP  RH WIND       PRES   REMARKS
WILLISTON      CLEAR    -11 -15  82 CALM      29.78F                  
MINOT          CLOUDY     3  -2  79 S9        29.83F WCI -12          
MINOT AFB      PTCLDY    -3  -8  80 SE8       29.91F WCI -18          
BISMARCK       LGT SNOW   5   1  83 E5        29.87F FOG     WCI  -4  
DICKINSON      CLOUDY     2  -3  80 SE6       29.72F WCI  -9          
GARRISON         N/A      2  -1  88 CALM      29.83F                  
HETTINGER ARPT CLOUDY     3  -2  79 CALM      29.74F                  
JAMESTOWN      CLOUDY     8   6  92 SE9       29.92F WCI  -5          
CARRINGTON     CLOUDY     7   5  92 SE10      29.93F WCI  -8          
HAZEN          CLOUDY     1   0  92 E5        29.86F WCI  -8          
LINTON           N/A     12   7  79 SE14      29.87F WCI  -3          
MANDAN         FLURRIES   7   5  92 E7        29.84F WCI  -5          
OAKES          CLOUDY    10   9  92 E15       29.95F FOG     WCI  -6  
RUGBY          FAIR      -2  -6  84 SE8       29.89F WCI -17          
STANLEY        PTSUNNY   -4  -6  92 S8        29.78F WCI -19          
TIOGA          PTSUNNY   -6  -8  92 SE3       29.77F                  
WATFORD CITY   FAIR       0  -4  85 SE12      29.77F WCI -18          
$$
  
CITY           SKY/WX    TMP DP  RH WIND       PRES   REMARKS
GRAND FORKS    CLOUDY     5   1  83 S9        30.03F WCI  -9          
GRAND FORKS AF CLOUDY     6   2  84 S9        30.02F WCI  -8          
DEVILS LAKE    FLURRIES   3   0  87 SE6       29.94F WCI  -8          
FARGO          CLOUDY    12   9  87 E5        30.04F FOG     WCI   4  
CANDO          FAIR      -8 -11  84 SE7       29.94F WCI -22          
CAVALIER       FAIR      -4  -8  84 S6        30.02S WCI -16          
GRAFTON        FAIR      -4  -8  84 SE8       30.06F WCI -19          
GWINNER          N/A     10   9  92 SE12      29.98F FOG     WCI  -4  
LANGDON        FAIR      -4  -6  92 S10       29.93F WCI -21          
ROLLA          FAIR      -4  -8  84 S8        29.87F WCI -19          
WALHALLA         N/A     -6  -6 100 SE6       30.00F WCI -18          
$$
  
CITY           SKY/WX    TMP DP  RH WIND       PRES   REMARKS
ABERDEEN       LGT SNOW  14  11  87 E5        29.93F VSB 1   WCI   6  
MOBRIDGE       LGT SNOW  14   9  80 SE13      29.80F WCI   0          
BUFFALO          N/A      2  -4  76 E5        29.67F WCI  -8          
RAPID CITY     CLEAR      2  -2  83 N10       29.65F WCI -14          
GLASGOW        CLEAR    -12 -19  71 NE6       29.71F WCI -26          
SIDNEY         MOCLDY    -5 -10  79 CALM      29.78F                  
WOLF POINT     PTCLDY   -18 -23  77 E3        29.77F                  
GLENDIVE       CLOUDY    -2  -7  79 CALM      29.73F                  
MILES CITY     CLEAR    -16 -20  82 NW5       29.70F WCI -29          
BAKER          PTCLDY   -11 -14  86 SE6       29.68F WCI -25          
$$
  
CITY           SKY/WX    TMP DP  RH WIND       PRES   REMARKS
BILLINGS       PTCLDY     7   2  80 SW12      29.62F WCI  -8          
GREAT FALLS    CLEAR      5   0  79 SW13      29.59F WCI -12          
REGINA         CLEAR    -11 -15  84 E9        29.73F WCI -29          
ESTEVAN        CLEAR    -18 -22  83 VRB2      29.78F                  
$$